When you browse on this site, cookies collect data to enhance your experience and personalize the content and advertising you see.
Visit our Privacy Policy to learn more. By continuing to use the site, you agree to this use of cookies and data.
  • In Czech Republic
  • List of Countries
  • For 7 days
  • Water Temperature
  • Satellite Maps
  • Weather Map
  • Weather Widgets
  • user-avatar
    Login

    Hourly Weather Eisenstadt

    Today, 24 June, Monday

    Time Temperature Precipitation Wind Pressure Humidity
    00:00 +17°C° 0.1 mm 3 mps 725 mmHg 90%
    01:00 +17°C° 0 mm 3 mps 725 mmHg 91%
    02:00 +17°C° 0.1 mm 3 mps 725 mmHg 91%
    03:00 +17°C° 0.1 mm 3 mps 725 mmHg 90%
    04:00 +17°C° 0.1 mm 3 mps 725 mmHg 90%
    05:00 +18°C° 0 mm 3 mps 725 mmHg 86%
    06:00 +19°C° 0 mm 3 mps 726 mmHg 81%
    07:00 +21°C° 0 mm 3 mps 726 mmHg 79%
    08:00 +22°C° 0 mm 3 mps 726 mmHg 73%
    09:00 +24°C° 0 mm 3 mps 726 mmHg 67%
    10:00 +25°C° 0 mm 4 mps 726 mmHg 61%
    11:00 +26°C° 0.1 mm 4 mps 726 mmHg 60%
    12:00 +27°C° 0.1 mm 4 mps 726 mmHg 60%
    13:00 +27°C° 0.1 mm 5 mps 726 mmHg 59%
    14:00 +27°C° 0.2 mm 4 mps 726 mmHg 61%
    15:00 +27°C° 0.2 mm 4 mps 726 mmHg 63%
    16:00 +27°C° 0.2 mm 3 mps 726 mmHg 64%
    17:00 +26°C° 0.1 mm 3 mps 726 mmHg 70%
    18:00 +25°C° 0.1 mm 2 mps 726 mmHg 75%
    19:00 +24°C° 0.1 mm 2 mps 727 mmHg 80%
    20:00 +23°C° 0 mm 1 mps 727 mmHg 82%
    21:00 +22°C° 0 mm 1 mps 727 mmHg 84%
    22:00 +21°C° 0 mm 1 mps 727 mmHg 86%
    23:00 +20°C° 0 mm 1 mps 727 mmHg 86%

    Tomorrow, 25 June, Tuesday

    Time Temperature Precipitation Wind Pressure Humidity
    00:00 +20°C° 0 mm 1 mps 727 mmHg 87%
    01:00 +20°C° 0 mm 1 mps 728 mmHg 87%
    02:00 +19°C° 0 mm 1 mps 727 mmHg 89%
    03:00 +19°C° 0 mm 1 mps 727 mmHg 90%
    04:00 +19°C° 0 mm 1 mps 727 mmHg 92%
    05:00 +20°C° 0 mm 1 mps 727 mmHg 87%
    06:00 +20°C° 0 mm 0 mps 728 mmHg 83%
    07:00 +22°C° 0 mm 0 mps 728 mmHg 78%
    08:00 +25°C° 0 mm 1 mps 728 mmHg 73%
    09:00 +26°C° 0 mm 1 mps 729 mmHg 69%
    10:00 +27°C° 0 mm 2 mps 729 mmHg 64%
    11:00 +28°C° 0 mm 2 mps 729 mmHg 61%
    12:00 +29°C° 0 mm 2 mps 729 mmHg 58%
    13:00 +29°C° 0 mm 2 mps 729 mmHg 56%
    14:00 +30°C° 0 mm 2 mps 729 mmHg 56%
    15:00 +30°C° 0 mm 2 mps 728 mmHg 57%
    16:00 +30°C° 0 mm 2 mps 728 mmHg 58%
    17:00 +28°C° 0 mm 2 mps 728 mmHg 65%
    18:00 +27°C° 0 mm 2 mps 728 mmHg 72%
    19:00 +26°C° 0 mm 2 mps 728 mmHg 79%
    20:00 +25°C° 0 mm 2 mps 729 mmHg 83%
    21:00 +23°C° 0 mm 2 mps 729 mmHg 87%
    22:00 +21°C° 0 mm 2 mps 729 mmHg 90%
    23:00 +21°C° 0 mm 2 mps 729 mmHg 91%

    Day after tomorrow, 26 June, Wednesday

    Time Temperature Precipitation Wind Pressure Humidity
    00:00 +21°C° 0 mm 2 mps 729 mmHg 92%
    01:00 +21°C° 0 mm 2 mps 729 mmHg 93%
    02:00 +20°C° 0 mm 2 mps 729 mmHg 93%
    03:00 +21°C° 0 mm 1 mps 729 mmHg 92%
    04:00 +21°C° 0 mm 1 mps 728 mmHg 92%
    05:00 +22°C° 0 mm 1 mps 729 mmHg 87%
    06:00 +24°C° 0 mm 1 mps 729 mmHg 81%
    07:00 +26°C° 0 mm 1 mps 729 mmHg 76%
    08:00 +27°C° 0 mm 2 mps 729 mmHg 69%
    09:00 +29°C° 0 mm 2 mps 729 mmHg 63%
    10:00 +30°C° 0 mm 2 mps 729 mmHg 56%
    11:00 +31°C° 0 mm 3 mps 729 mmHg 53%
    12:00 +33°C° 0 mm 3 mps 729 mmHg 50%
    13:00 +34°C° 0 mm 3 mps 729 mmHg 46%
    14:00 +34°C° 0 mm 3 mps 729 mmHg 47%
    15:00 +33°C° 0 mm 3 mps 728 mmHg 48%
    16:00 +33°C° 0 mm 3 mps 728 mmHg 50%
    17:00 +31°C° 0 mm 2 mps 728 mmHg 59%
    18:00 +29°C° 0 mm 2 mps 727 mmHg 68%
    19:00 +27°C° 0 mm 2 mps 727 mmHg 77%
    20:00 +26°C° 0 mm 2 mps 727 mmHg 78%
    21:00 +25°C° 0 mm 2 mps 727 mmHg 80%
    22:00 +24°C° 0 mm 2 mps 727 mmHg 82%
    23:00 +24°C° 0 mm 2 mps 727 mmHg 80%

    27 June, Thursday

    Time Temperature Precipitation Wind Pressure Humidity
    00:00 +24°C° 0 mm 2 mps 727 mmHg 79%
    01:00 +23°C° 0 mm 2 mps 727 mmHg 77%
    02:00 +23°C° 0 mm 2 mps 727 mmHg 75%
    03:00 +23°C° 0 mm 1 mps 726 mmHg 73%
    04:00 +23°C° 0 mm 1 mps 726 mmHg 72%
    05:00 +25°C° 0 mm 1 mps 726 mmHg 69%
    06:00 +27°C° 0 mm 1 mps 726 mmHg 66%
    07:00 +26°C° 0 mm 0 mps 726 mmHg 63%
    08:00 +30°C° 0 mm 1 mps 726 mmHg 58%
    09:00 +31°C° 0 mm 2 mps 726 mmHg 54%
    10:00 +33°C° 0 mm 3 mps 726 mmHg 49%
    11:00 +33°C° 0 mm 4 mps 726 mmHg 49%
    12:00 +33°C° 0 mm 4 mps 726 mmHg 49%
    13:00 +34°C° 0 mm 5 mps 725 mmHg 49%
    14:00 +33°C° 0.1 mm 5 mps 725 mmHg 52%
    15:00 +32°C° 0.1 mm 5 mps 725 mmHg 56%
    16:00 +30°C° 0.1 mm 5 mps 724 mmHg 59%
    17:00 +28°C° 0 mm 4 mps 724 mmHg 62%
    18:00 +27°C° 0 mm 4 mps 724 mmHg 65%
    19:00 +25°C° 0 mm 3 mps 724 mmHg 68%
    20:00 +23°C° 0 mm 4 mps 725 mmHg 64%
    21:00 +22°C° 0 mm 4 mps 725 mmHg 61%
    22:00 +20°C° 0 mm 4 mps 726 mmHg 57%
    23:00 +20°C° 0 mm 4 mps 726 mmHg 59%

    28 June, Friday

    Time Temperature Precipitation Wind Pressure Humidity
    00:00 +19°C° 0 mm 4 mps 726 mmHg 61%
    01:00 +18°C° 0 mm 3 mps 726 mmHg 63%
    02:00 +17°C° 0 mm 3 mps 725 mmHg 64%
    03:00 +17°C° 0 mm 3 mps 725 mmHg 64%
    04:00 +16°C° 0 mm 3 mps 725 mmHg 65%
    05:00 +17°C° 0 mm 3 mps 725 mmHg 62%
    06:00 +19°C° 0 mm 3 mps 725 mmHg 60%
    07:00 +20°C° 0 mm 3 mps 725 mmHg 57%
    08:00 +22°C° 0 mm 3 mps 726 mmHg 52%
    09:00 +24°C° 0 mm 3 mps 726 mmHg 46%
    10:00 +26°C° 0 mm 4 mps 726 mmHg 40%
    11:00 +27°C° 0 mm 4 mps 725 mmHg 38%
    12:00 +28°C° 0 mm 4 mps 725 mmHg 36%
    13:00 +29°C° 0 mm 4 mps 725 mmHg 33%
    14:00 +29°C° 0 mm 4 mps 725 mmHg 35%
    15:00 +28°C° 0 mm 4 mps 724 mmHg 37%
    16:00 +28°C° 0 mm 4 mps 724 mmHg 39%
    17:00 +27°C° 0 mm 4 mps 724 mmHg 47%
    18:00 +25°C° 0 mm 3 mps 724 mmHg 54%
    19:00 +22°C° 0 mm 3 mps 724 mmHg 62%
    20:00 +21°C° 0 mm 3 mps 724 mmHg 63%
    21:00 +20°C° 0 mm 3 mps 725 mmHg 63%
    22:00 +18°C° 0 mm 3 mps 725 mmHg 64%
    23:00 +18°C° 0 mm 3 mps 725 mmHg 65%

    29 June, Saturday

    Time Temperature Precipitation Wind Pressure Humidity
    00:00 +17°C° 0 mm 3 mps 725 mmHg 67%
    01:00 +17°C° 0 mm 3 mps 725 mmHg 68%
    02:00 +16°C° 0 mm 3 mps 725 mmHg 70%
    03:00 +16°C° 0 mm 2 mps 725 mmHg 71%
    04:00 +15°C° 0 mm 2 mps 725 mmHg 72%
    05:00 +17°C° 0 mm 3 mps 725 mmHg 70%
    06:00 +18°C° 0 mm 3 mps 725 mmHg 67%
    07:00 +19°C° 0 mm 3 mps 725 mmHg 64%
    08:00 +21°C° 0 mm 3 mps 726 mmHg 60%
    09:00 +22°C° 0 mm 3 mps 726 mmHg 55%
    10:00 +24°C° 0 mm 3 mps 726 mmHg 51%
    11:00 +25°C° 0 mm 4 mps 726 mmHg 49%
    12:00 +25°C° 0 mm 4 mps 725 mmHg 47%
    13:00 +26°C° 0 mm 4 mps 725 mmHg 45%
    14:00 +26°C° 0 mm 4 mps 725 mmHg 46%
    15:00 +26°C° 0 mm 3 mps 725 mmHg 46%
    16:00 +25°C° 0 mm 3 mps 724 mmHg 47%
    17:00 +24°C° 0 mm 3 mps 724 mmHg 54%
    18:00 +23°C° 0 mm 2 mps 724 mmHg 61%
    19:00 +21°C° 0 mm 1 mps 724 mmHg 68%
    20:00 +20°C° 0 mm 1 mps 725 mmHg 69%
    21:00 +19°C° 0 mm 1 mps 725 mmHg 70%
    22:00 +18°C° 0 mm 1 mps 725 mmHg 71%
    23:00 +18°C° 0 mm 1 mps 725 mmHg 72%
    Show more